Погода в Верх-Урюме

Россия / Новосибирская область     54°29′30″N   78°35′25″E
темп.,
°C
ветер,
м/с
пор.,
м/с
влажн.,
%
обл.,
%
осадки,
мм/ч
давл.,
гПа
погр.,
м
9 мая, вс
вс901:00+15з33400 0.0 101732
04:00+11всв35625 0.0 101871
07:00+10всв36644 0.0 1018115
10:00+15св56425 0.0 1018527
13:00+18св55385 0.0 10181038
16:00+18св663297 0.0 10171329
19:00+16св7734100 0.0 10181233
22:00+12всв71240100 0.0 1019620
10 мая, пн
пн1001:00+10всв71444100 0.0 1020558
04:00+8в71447100 0.0 1020631
07:00+6всв6135553 0.0 1021685
10:00+10всв8114794 0.0 10221041
13:00+14всв8103691 0.0 10211579
16:00+16всв810325 0.0 10201812
19:00+16св793497 0.0 10191914
22:00+12ссв612455 0.0 1020405
11 мая, вт
вт1101:00+9св613595 0.0 1021398
04:00+7ссв511695 0.0 1021272
07:00+6ссв59765 0.0 1022258
10:00+12ссв67555 0.0 1022670
13:00+16св783780 0.0 10222254
16:00+17ссв673374 0.0 10212545
19:00+17с683222 0.0 10222331
22:00+12с410455 0.0 1023225
12 мая, ср
ср1201:00+9ссв49530 0.0 1023168
04:00+7ссв34615 0.0 102449
07:00+7с34630 0.0 102490
10:00+13с45417 0.0 10241031
13:00+16с563199 0.0 10231644
16:00+18ссз462896 0.0 10211987
19:00+17сз452997 0.0 10211958
22:00+12зсз22420 0.0 102112
13 мая, чт
чт1301:00+10юв33480 0.0 102135
04:00+9ююв33490 0.0 102124
07:00+9юв23520 0.0 102144
10:00+15юв33360 0.0 1021576
13:00+18всв22290 0.0 10211940
16:00+20с33240 0.0 10202174
19:00+19сз34265 0.0 10201819
22:00+14зсз374493 0.0 1021117